Weather History for Deadhorse, AK

Change the Weather History Date:

Monday, February 18, 2013

  Actual Average Record
Temperature  
Mean Temperature -42 °F -  
Max Temperature -38 °F -9 °F 28 °F (1989)
Min Temperature -45 °F -20 °F -54 °F (1987)
Degree Days  
Heating Degree Days 106    
Moisture  
Dew Point -    
Average Humidity    
Maximum Humidity    
Minimum Humidity    
Precipitation  
Precipitation 0.00 in - - ()
Sea Level Pressure  
Sea Level Pressure 30.68 in    
Wind  
Wind Speed 10 mph (WSW)    
Max Wind Speed 13 mph    
Max Gust Speed -    
Visibility 9 miles    
Events      
Averages and records for this station are not official NWS values.
T = Trace of Precipitation, MM = Missing Value Source: NWS Daily Summary

Daily Weather History Graph

Daily Weather History Graph

Search for Another Location

Airport:

Trip Planner

Search our weather history database for the weather conditions in past years. The results will help you decide how hot, cold, wet, or windy it might be!

Date:

Astronomy

Feb. 18, 2013 Rise Set
Actual Time 9:11 AM AKST 5:05 PM AKST
Civil Twilight 8:04 AM AKST 6:12 PM AKST
Nautical Twilight 6:52 AM AKST 7:24 PM AKST
Astronomical Twilight 5:41 AM AKST 8:36 PM AKST
Moon No Moon Rise No Moon Set
Length of Visible Light 10h 08m
Length of Day
7h 53m
First Quarter, 60% of the Moon is Illuminated
Feb 18
First Quarter
Feb 25
Full
Mar 4
Last Quarter
Mar 11
New
Mar 19
First Quarter

Hourly Weather History & Observations

Time (AKST) Temp. Windchill Dew Point Humidity Pressure Visibility Wind Dir Wind Speed Gust Speed Precip Events Conditions
12:53 AM -38.0 °F -64.8 °F - N/A% 30.66 in 10.0 mi SW 11.5 mph - N/A   Partly Cloudy
1:53 AM -38.0 °F -65.9 °F - N/A% 30.67 in 10.0 mi SW 12.7 mph - N/A   Clear
2:53 AM -38.0 °F -65.9 °F - N/A% 30.68 in 10.0 mi SW 12.7 mph - N/A   Clear
3:53 AM -38.9 °F -65.9 °F - N/A% 30.69 in 10.0 mi WSW 11.5 mph - N/A   Clear
4:53 AM -38.9 °F -65.9 °F - N/A% 30.69 in 10.0 mi SW 11.5 mph - N/A   Clear
5:53 AM -40.0 °F -67.2 °F - N/A% 30.70 in 10.0 mi SW 11.5 mph - N/A   Clear
6:53 AM -40.0 °F -65.9 °F - N/A% 30.70 in 10.0 mi WSW 10.4 mph - N/A   Clear
7:53 AM -41.1 °F -67.3 °F - N/A% 30.70 in 10.0 mi SW 10.4 mph - N/A   Clear
8:53 AM -41.1 °F -68.6 °F - N/A% 30.71 in 10.0 mi WSW 11.5 mph - N/A   Clear
9:53 AM -42.0 °F -68.4 °F - N/A% 30.71 in 10.0 mi WSW 10.4 mph - N/A   Clear
10:53 AM -41.1 °F -68.6 °F - N/A% 30.71 in 10.0 mi SW 11.5 mph - N/A   Clear
11:53 AM -40.0 °F -65.9 °F - N/A% 30.72 in 10.0 mi SW 10.4 mph - N/A   Clear
12:53 PM -40.0 °F -64.5 °F - N/A% 30.72 in 10.0 mi SW 9.2 mph - N/A   Clear
1:53 PM -38.9 °F -63.2 °F - N/A% 30.72 in 10.0 mi SW 9.2 mph - N/A   Clear
2:53 PM -38.9 °F -64.6 °F - N/A% 30.71 in 10.0 mi SW 10.4 mph - N/A   Clear
3:53 PM -38.9 °F -64.6 °F - N/A% 30.71 in 10.0 mi WSW 10.4 mph - N/A   Clear
4:53 PM -41.1 °F -64.2 °F - N/A% 30.69 in 10.0 mi WSW 8.1 mph - N/A   Clear
5:53 PM -42.0 °F -65.3 °F - N/A% 30.70 in 10.0 mi WSW 8.1 mph - N/A   Clear
6:53 PM -43.1 °F -64.8 °F - N/A% 30.69 in 10.0 mi SW 6.9 mph - N/A   Clear
7:53 PM -43.1 °F -64.8 °F - N/A% 30.68 in 10.0 mi SW 6.9 mph - N/A   Clear
8:53 PM -44.0 °F -63.7 °F - N/A% 30.67 in 8.0 mi WSW 5.8 mph - N/A   Clear
9:28 PM -43.6 °F -63.3 °F - N/A% 30.65 in 4.0 mi SW 5.8 mph - N/A   Scattered Clouds
9:53 PM -44.0 °F -61.2 °F - N/A% 30.65 in 5.0 mi WSW 4.6 mph - N/A   Partly Cloudy
10:53 PM -45.0 °F -67.2 °F - N/A% 30.65 in 7.0 mi WSW 6.9 mph - N/A   Partly Cloudy
11:02 PM -45.4 °F -67.6 °F - N/A% 30.64 in 4.0 mi WSW 6.9 mph - N/A   Mostly Cloudy
11:21 PM -45.4 °F -69.5 °F - N/A% 30.64 in 4.0 mi West 8.1 mph - N/A   Overcast
11:44 PM -43.6 °F -65.4 °F - N/A% 30.62 in 4.0 mi West 6.9 mph - N/A   Scattered Clouds
11:53 PM -44.0 °F -63.7 °F - N/A% 30.64 in 4.0 mi West 5.8 mph - N/A   Scattered Clouds